Peachtree City, GA

11:28 AM EST on December 15, 2019 (GMT -0500)
Peachtree City-Falcon

Weather History for KFFC - June, 2019

Change the Weather History Date:

Sunday, June 2, 2019

  Actual Average Record
Temperature  
Mean Temperature 76 °F 73 °F  
Max Temperature 90 °F 85 °F 96 °F (1998)
Min Temperature 61 °F 62 °F 48 °F (2003)
Degree Days  
Heating Degree Days 0 0  
Month to date heating degree days 0 0  
Since 1 June heating degree days 0 0  
Since 1 July heating degree days 2325 2950  
Cooling Degree Days 11 8  
Month to date cooling degree days 22 16  
Year to date cooling degree days 429 206  
Since 1 June cooling degree days 22 16  
Growing Degree Days 25 (Base 50)    
Moisture  
Dew Point 61 °F    
Average Humidity 64    
Maximum Humidity 90    
Minimum Humidity 38    
Precipitation  
Precipitation 0.00 in 0.12 in 1.27 in (2006)
Month to date precipitation 0.00 0.25  
Year to date precipitation 20.76 21.77  
Snow  
Snow 0.00 in - - ()
Month to date snowfall 0.0  
Since 1 June snowfall 0.0  
Since 1 July snowfall T  
Snow Depth 0.00 in    
Sea Level Pressure  
Sea Level Pressure 29.90 in    
Wind  
Wind Speed 3 mph (WNW)    
Max Wind Speed 21 mph    
Max Gust Speed 27 mph    
Visibility 10 miles    
Events      
T = Trace of Precipitation, MM = Missing Value Source: NWS Daily Summary

Daily Weather History Graph

Daily Weather History Graph

Search for Another Location

Airport or City:

Astronomy

Jun. 02, 2019 Rise Set
Actual Time 6:29 AM EDT 8:43 PM EDT
Civil Twilight 6:01 AM EDT 9:11 PM EDT
Nautical Twilight 5:26 AM EDT 9:46 PM EDT
Astronomical Twilight 4:48 AM EDT 10:24 PM EDT
Moon 6:02 AM EDT (6/2) 8:05 PM EDT (6/2)
Length of Visible Light 15h 10m
Length of Day
14h 13m
Waning Crescent, 1% of the Moon is Illuminated
Jun 2
Waning Crescent
Jun 3
New
Jun 10
First Quarter
Jun 17
Full
Jun 25
Last Quarter

Hourly Weather History & Observations

Time (EDT) Temp. Heat Index Dew Point Humidity Pressure Visibility Wind Dir Wind Speed Gust Speed Precip Events Conditions
12:53 AM 66.0 °F - 61.0 °F 84% 29.89 in 10.0 mi Calm Calm - N/A   Clear
1:53 AM 64.0 °F - 60.1 °F 87% 29.88 in 10.0 mi Calm Calm - N/A   Clear
2:53 AM 63.0 °F - 59.0 °F 87% 29.86 in 10.0 mi Calm Calm - N/A   Clear
3:53 AM 63.0 °F - 59.0 °F 87% 29.87 in 10.0 mi Calm Calm - N/A   Clear
4:53 AM 62.1 °F - 59.0 °F 90% 29.88 in 10.0 mi Calm Calm - N/A   Clear
5:53 AM 61.0 °F - 57.9 °F 90% 29.89 in 9.0 mi Calm Calm - N/A   Clear
6:53 AM 61.0 °F - 57.9 °F 90% 29.90 in 8.0 mi Calm Calm - N/A   Clear
7:53 AM 66.0 °F - 61.0 °F 84% 29.91 in 10.0 mi Calm Calm - N/A   Clear
8:53 AM 73.0 °F - 62.1 °F 68% 29.93 in 10.0 mi Calm Calm - N/A   Clear
9:53 AM 78.1 °F - 62.1 °F 58% 29.94 in 10.0 mi WNW 4.6 mph - N/A   Clear
10:53 AM 82.0 °F 82.7 °F 61.0 °F 49% 29.94 in 10.0 mi Variable 3.5 mph - N/A   Clear
11:53 AM 82.9 °F 82.8 °F 59.0 °F 44% 29.94 in 10.0 mi NW 8.1 mph 16.1 mph N/A   Clear
12:53 PM 84.0 °F 84.4 °F 61.0 °F 46% 29.94 in 10.0 mi Variable 3.5 mph - N/A   Clear
1:53 PM 86.0 °F 86.1 °F 61.0 °F 43% 29.92 in 10.0 mi West 6.9 mph - N/A   Clear
2:53 PM 87.1 °F 87.0 °F 61.0 °F 41% 29.91 in 10.0 mi WSW 8.1 mph - N/A   Clear
3:53 PM 89.1 °F 89.0 °F 61.0 °F 39% 29.89 in 10.0 mi Variable 5.8 mph - N/A   Partly Cloudy
4:53 PM 89.1 °F 88.8 °F 60.1 °F 38% 29.87 in 10.0 mi WNW 10.4 mph - N/A   Clear
5:53 PM 89.1 °F 88.8 °F 60.1 °F 38% 29.87 in 10.0 mi Calm Calm - N/A   Partly Cloudy
6:53 PM 88.0 °F 87.6 °F 60.1 °F 39% 29.87 in 10.0 mi West 4.6 mph - N/A   Partly Cloudy
7:53 PM 81.0 °F 83.3 °F 66.9 °F 62% 29.88 in 10.0 mi Calm Calm - N/A   Clear
8:53 PM 79.0 °F - 61.0 °F 54% 29.91 in 10.0 mi NNE 9.2 mph - N/A   Mostly Cloudy
9:53 PM 73.9 °F - 64.0 °F 71% 29.90 in 10.0 mi Calm Calm - N/A   Partly Cloudy
10:53 PM 72.0 °F - 64.0 °F 76% 29.91 in 10.0 mi Calm Calm - N/A   Clear
11:53 PM 71.1 °F - 64.0 °F 78% 29.91 in 10.0 mi Calm Calm - N/A   Clear